Location: Newark
(49.3000°N, 9.4667°E)
Time: 22:02:57
(UTC+00:00)

Transit 2A Rocket - Pass Details

Date: 22 May 2019
Orbit: 586 x 917 km, 66.7° (Epoch: 23 June)

Event Time Altitude Azimuth Distance (km) Brightness Sun altitude
Rises 02:27:23 0° 319° (NW) 3,442 8.4 -8.8°
Reaches altitude 10° 02:30:05 10° 312° (NW) 2,455 7.6 -8.5°
Maximum altitude 02:35:15 38° 247° (WSW) 1,193 5.6 -7.9°
Drops below altitude 10° 02:39:58 10° 180° (S) 2,237 7.0 -7.3°
Sets 02:42:21 0° 172° (S) 3,100 7.8 -7.0°
